Location: Newark
(47.5833°N, 8.1500°E)
Time: 08:00:36
(UTC+00:00)

Vanguard 1 - Pass Details

Date: 29 October 2020
Orbit: 650 x 3833 km, 34.2° (Epoch: 29 November)

Event Time Altitude Azimuth Distance (km) Brightness Sun altitude
Rises 19:15:31 0° 279° (W) 7,348 15.7 -31.0°
Reaches altitude 10° 19:24:44 10° 258° (WSW) 5,609 14.6 -32.5°
Maximum altitude 19:30:47 13° 236° (SW) 4,742 13.9 -33.4°
Drops below altitude 10° 19:35:49 10° 212° (SSW) 4,452 13.5 -34.3°
Sets 19:41:18 0° 186° (S) 4,780 13.5 -35.1°
